Погода в Первомайском

Россия / Смоленская область     54°03′59″N   32°27′58″E
темп.,
°C
ветер,
м/с
пор.,
м/с
влажн.,
%
обл.,
%
осадки,
мм/ч
давл.,
гПа
погр.,
м
20 мая, пт
пт2000:00+9сз4127883 0.0 1018297
03:00+8с268496 0.0 1017183
06:00+7св229315 0.0 101858
09:00+12всв1176100 0.0 1019520
12:00+15ссв1162100 0.0 10171102
15:00+15всв2162100 0.0 10161020
18:00+13ююв3579100 0.3 1015398
21:00+10юв4890100 1.1 1014248
21 мая, сб
сб2100:00+9юв51096100 2.2 1012553
03:00+8вюв61295100 3.1 1010639
06:00+8вюв61295100 0.6 1009688
09:00+8вюв61296100 1.4 1008710
12:00+8вюв61193100 0.1 1008705
15:00+8вюв61193100 0.1 1006744
18:00+8вюв61296100 1.8 1004615
21:00+7вюв61197100 3.7 1002473
22 мая, вс
вс2200:00+7в51098100 5.0 1000453
03:00+7всв41098100 14.9 999540
06:00+5св81294100 6.3 999885
09:00+7св61493100 8.1 10001129
12:00+11св8127133 0.3 10021566
15:00+12св696297 0.4 10041937
18:00+11ссв586365 0.1 10061231
21:00+6с33774 0.1 100827
23 мая, пн
пн2300:00+4с23735 0.0 100922
03:00+3ссз22735 0.0 101012
06:00+4сз248283 0.0 101087
09:00+10с34625 0.0 1011458
12:00+12ссз56465 0.0 10102018
15:00+13ссз574670 0.0 10102231
18:00+12сз57565 0.0 10101901
21:00+7зсз35745 0.0 101162
24 мая, вт
вт2400:00+5ссз35850 0.0 101273
03:00+4ссз358527 0.0 101481
06:00+4ссз35835 0.0 1015105
09:00+10с45575 0.0 1015476
12:00+14с35532 0.0 10151186
15:00+16сз465298 0.0 10152077
18:00+15зсз486920 0.1 1015497
21:00+10з47895 0.2 1017107